Powrót do katalogu

COSMOS 2251 DEB

LostLEO
NORAD 35721·DEBRIS·🇷🇺 Russia

Wystrzelony Jun 16, 1993 z Plesetsk Cosmodrome

Loading…

Następne Przeloty (najbliższe 24 godziny)

TLE

NieaktualneSource: Space-Track

Epoka: Aug 8, 2026, 09:03 UTC

1 35721U 93036AQS 26220.37708636  .00001386  00000-0  43043-3 0  9996
2 35721  73.9494  97.5448 0145279 191.7321 168.0437 14.36131404612134

Śledź COSMOS 2251 DEB w czasie rzeczywistym z AllMySat

Download on the App Store